TimeCST,TemperatureF,Dew PointF,Humidity,Sea Level PressureIn,VisibilityMPH,Wind Direction,Wind SpeedMPH,Gust SpeedMPH,PrecipitationIn,Events,Conditions,WindDirDegrees,DateUTC
12:15 AM,39.2,38.5,97,29.55,5.0,East,11.5,25.3,N/A,Rain,Light Rain,100,2012-12-20 06:15:00
12:35 AM,40.1,39.2,97,29.59,7.0,North,6.9,-,N/A,Rain,Light Rain,350,2012-12-20 06:35:00
12:55 AM,40.3,39.4,97,29.55,5.0,NE,9.2,-,0.03,Rain,Light Rain,50,2012-12-20 06:55:00
1:15 AM,40.3,39.4,97,29.52,5.0,ENE,11.5,-,0.01,Rain-Thunderstorm,Light Thunderstorms and Rain,70,2012-12-20 07:15:00
1:35 AM,40.8,39.6,95,29.50,7.0,ENE,12.7,-,0.02,Rain,Light Rain,70,2012-12-20 07:35:00
1:55 AM,40.8,39.6,95,29.48,5.0,East,15.0,19.6,0.02,,Overcast,80,2012-12-20 07:55:00
2:15 AM,41.0,39.2,93,29.46,5.0,East,15.0,21.9,N/A,,Overcast,80,2012-12-20 08:15:00
2:35 AM,41.0,40.1,97,29.44,5.0,East,13.8,17.3,N/A,,Overcast,80,2012-12-20 08:35:00
2:55 AM,41.2,40.1,96,29.41,5.0,East,12.7,20.7,N/A,,Overcast,80,2012-12-20 08:55:00
3:15 AM,41.5,40.3,95,29.39,5.0,East,12.7,18.4,N/A,,Overcast,80,2012-12-20 09:15:00
3:35 AM,41.7,40.6,96,29.36,4.0,East,15.0,20.7,N/A,,Overcast,80,2012-12-20 09:35:00
3:55 AM,41.9,41.0,97,29.34,4.0,East,12.7,18.4,N/A,,Overcast,80,2012-12-20 09:55:00
4:15 AM,42.1,41.2,97,29.31,4.0,East,11.5,17.3,N/A,Thunderstorm,Overcast,80,2012-12-20 10:15:00
4:35 AM,42.4,41.5,97,29.30,4.0,NE,6.9,-,N/A,,Overcast,40,2012-12-20 10:35:00
4:55 AM,42.4,41.9,98,29.29,4.0,NE,6.9,-,N/A,,Overcast,40,2012-12-20 10:55:00
5:15 AM,42.4,41.9,98,29.27,3.0,ENE,6.9,-,N/A,,Overcast,70,2012-12-20 11:15:00
5:35 AM,42.8,42.1,97,29.26,2.5,NE,4.6,-,N/A,,Overcast,50,2012-12-20 11:35:00
5:55 AM,42.8,42.1,97,29.25,2.0,NE,6.9,-,N/A,,Overcast,40,2012-12-20 11:55:00
6:15 AM,42.4,42.1,99,29.24,1.8,NE,6.9,-,N/A,,Overcast,40,2012-12-20 12:15:00
6:35 AM,42.4,42.3,99,29.24,1.5,NNE,6.9,-,N/A,,Overcast,30,2012-12-20 12:35:00
6:55 AM,42.8,42.4,99,29.22,1.0,NNE,9.2,-,N/A,,Overcast,20,2012-12-20 12:55:00
7:15 AM,42.4,42.3,99,29.21,0.8,NNE,12.7,-,N/A,,Light Drizzle,20,2012-12-20 13:15:00
7:35 AM,41.4,41.2,99,29.19,2.0,North,15.0,-,N/A,Rain,Light Rain,10,2012-12-20 13:35:00
7:55 AM,41.0,40.6,99,29.18,3.0,North,16.1,-,N/A,,Overcast,10,2012-12-20 13:55:00
8:15 AM,40.3,40.1,99,29.17,1.0,North,16.1,-,0.05,,Light Drizzle,350,2012-12-20 14:15:00
8:35 AM,39.9,39.6,99,29.17,1.0,NNW,19.6,-,0.11,Rain,Light Rain,340,2012-12-20 14:35:00
8:55 AM,38.3,37.8,98,29.16,0.8,North,21.9,31.1,0.15,,Unknown,350,2012-12-20 14:55:00
9:15 AM,37.4,36.9,98,29.14,1.5,North,25.3,29.9,0.03,Snow,Light Snow,350,2012-12-20 15:15:00
9:35 AM,36.5,36.1,99,29.14,1.2,North,21.9,-,0.08,Snow,Light Snow,350,2012-12-20 15:35:00
9:55 AM,35.8,35.4,99,29.14,1.5,NNW,27.6,35.7,0.12,Snow,Light Snow,340,2012-12-20 15:55:00
10:15 AM,35.2,34.7,98,29.15,4.0,NNW,24.2,34.5,0.01,Rain,Light Rain,340,2012-12-20 16:15:00
10:35 AM,34.9,33.8,96,29.15,10.0,NNW,20.7,31.1,0.01,Rain,Light Rain,330,2012-12-20 16:35:00
10:55 AM,34.7,32.9,93,29.16,2.5,NNW,23.0,35.7,0.03,Rain,Rain,330,2012-12-20 16:55:00
11:15 AM,33.3,32.0,95,29.16,1.8,NW,20.7,28.8,0.03,Rain,Rain,320,2012-12-20 17:15:00
11:35 AM,32.4,31.3,96,29.17,1.2,NW,21.9,34.5,0.07,Snow,Light Snow,320,2012-12-20 17:35:00
11:55 AM,32.0,30.9,96,29.19,0.8,NW,26.5,35.7,0.07,Snow,Light Snow,310,2012-12-20 17:55:00
12:15 PM,31.8,31.5,99,29.20,0.2,NW,25.3,32.2,0.01,Snow,Snow,310,2012-12-20 18:15:00
12:35 PM,32.0,31.6,99,29.21,0.2,NW,21.9,35.7,0.01,Snow,Heavy Snow,310,2012-12-20 18:35:00
12:55 PM,31.6,31.1,98,29.21,0.2,NW,32.2,39.1,0.01,Snow,Heavy Snow,310,2012-12-20 18:55:00
1:15 PM,31.6,31.1,98,29.22,0.2,NW,31.1,44.9,N/A,Snow,Heavy Snow,310,2012-12-20 19:15:00
1:35 PM,31.6,30.4,95,29.24,0.2,NW,32.2,43.7,N/A,Snow,Snow,310,2012-12-20 19:35:00
1:55 PM,31.6,30.2,94,29.25,0.2,NW,35.7,47.2,N/A,Snow,Snow,310,2012-12-20 19:55:00
2:15 PM,31.6,30.2,94,29.28,0.5,WNW,32.2,43.7,N/A,Snow,Light Snow,300,2012-12-20 20:15:00
2:35 PM,30.6,29.3,95,29.31,0.2,WNW,31.1,47.2,N/A,Snow,Snow,300,2012-12-20 20:35:00
2:55 PM,29.8,28.4,94,29.34,0.2,WNW,31.1,44.9,N/A,Snow,Snow,300,2012-12-20 20:55:00
3:15 PM,29.7,28.4,95,29.37,0.2,WNW,29.9,40.3,N/A,Snow,Heavy Snow,300,2012-12-20 21:15:00
3:35 PM,29.5,28.4,96,29.40,0.2,WNW,32.2,44.9,N/A,Snow,Snow,300,2012-12-20 21:35:00
3:55 PM,28.8,27.5,95,29.43,0.2,WNW,35.7,47.2,N/A,Snow,Snow,290,2012-12-20 21:55:00
4:15 PM,28.4,27.1,95,29.46,0.2,WNW,28.8,44.9,N/A,Snow,Snow,300,2012-12-20 22:15:00
4:35 PM,28.0,26.6,94,29.49,0.5,WNW,29.9,40.3,N/A,Snow,Snow,290,2012-12-20 22:35:00
4:55 PM,27.5,26.2,95,29.51,0.5,WNW,32.2,43.7,N/A,Snow,Light Snow,290,2012-12-20 22:55:00
5:15 PM,27.5,26.1,94,29.54,1.0,WNW,29.9,42.6,N/A,Snow,Light Snow,290,2012-12-20 23:15:00
5:35 PM,27.5,25.9,94,29.56,0.8,WNW,32.2,47.2,N/A,Snow,Light Snow,290,2012-12-20 23:35:00
5:55 PM,27.1,25.5,94,29.58,0.8,WNW,33.4,42.6,N/A,Snow,Snow,290,2012-12-20 23:55:00
6:15 PM,26.8,25.2,94,29.60,0.8,WNW,33.4,43.7,N/A,Snow,Light Snow,290,2012-12-21 00:15:00
6:35 PM,26.8,24.8,92,29.62,1.2,WNW,29.9,43.7,N/A,Snow,Light Snow,290,2012-12-21 00:35:00
6:55 PM,26.6,24.4,92,29.63,1.2,WNW,32.2,42.6,N/A,Snow,Light Snow,290,2012-12-21 00:55:00
7:15 PM,26.2,23.9,91,29.64,1.0,WNW,32.2,42.6,N/A,Snow,Light Snow,290,2012-12-21 01:15:00
7:35 PM,26.1,23.7,91,29.66,1.8,WNW,26.5,38.0,N/A,Snow,Light Snow,290,2012-12-21 01:35:00
7:55 PM,25.7,23.2,90,29.67,2.0,WNW,31.1,41.4,N/A,Snow,Light Snow,290,2012-12-21 01:55:00
8:15 PM,24.8,22.8,92,29.69,2.0,WNW,29.9,40.3,N/A,Snow,Light Snow,290,2012-12-21 02:15:00
8:35 PM,24.3,22.1,91,29.69,1.8,WNW,34.5,41.4,N/A,Snow,Light Snow,290,2012-12-21 02:35:00
8:55 PM,23.7,21.4,91,29.71,2.5,West,31.1,39.1,N/A,Snow,Light Snow,280,2012-12-21 02:55:00
9:15 PM,23.0,20.7,91,29.72,3.0,West,32.2,41.4,N/A,,Overcast,280,2012-12-21 03:15:00
9:35 PM,22.3,19.8,90,29.74,4.0,West,31.1,39.1,N/A,,Overcast,280,2012-12-21 03:35:00
9:55 PM,21.2,18.9,91,29.75,3.0,WNW,31.1,42.6,N/A,,Overcast,290,2012-12-21 03:55:00
10:15 PM,20.8,18.3,90,29.77,3.0,West,28.8,36.8,N/A,Snow,Light Snow,280,2012-12-21 04:15:00
10:35 PM,20.1,17.2,89,29.77,5.0,West,28.8,40.3,N/A,,Overcast,280,2012-12-21 04:35:00
10:55 PM,19.4,16.5,89,29.79,5.0,WNW,24.2,38.0,N/A,,Mostly Cloudy,290,2012-12-21 04:55:00
11:15 PM,19.2,15.8,87,29.80,7.0,West,26.5,35.7,N/A,,Mostly Cloudy,280,2012-12-21 05:15:00
11:35 PM,18.9,15.6,87,29.81,7.0,WNW,27.6,39.1,N/A,,Scattered Clouds,290,2012-12-21 05:35:00
11:55 PM,18.7,15.3,87,29.82,10.0,WNW,28.8,36.8,N/A,,Scattered Clouds,290,2012-12-21 05:55:00